Lanai City, HI

5:10 PM HST on September 28, 2016 (GMT -1000)
Lanai City

Weather History for PHNY - March, 2013

Change the Weather History Date:

Sunday, March 10, 2013

  Actual Average Record
Temperature  
Mean Temperature 68 °F -  
Max Temperature 73 °F 76 °F 81 °F (2014)
Min Temperature 62 °F 60 °F 55 °F (2015)
Cooling Degree Days 2    
Growing Degree Days 18 (Base 50)    
Moisture  
Dew Point 65 °F    
Average Humidity 95    
Maximum Humidity 100    
Minimum Humidity 78    
Precipitation  
Precipitation 0.30 in - - ()
Sea Level Pressure  
Sea Level Pressure 30.00 in    
Wind  
Wind Speed 10 mph (SW)    
Max Wind Speed 17 mph    
Max Gust Speed 24 mph    
Visibility 6 miles    
Events Fog , Rain    
Averages and records for this station are not official NWS values.
T = Trace of Precipitation, MM = Missing Value Source: NWS Daily Summary

Daily Weather History Graph

Daily Weather History Graph

Search for Another Location

Airport or City:

Trip Planner

Search our weather history database for the weather conditions in past years. The results will help you decide how hot, cold, wet, or windy it might be!

Date:

Astronomy

Mar. 10, 2013 Rise Set
Actual Time 6:40 AM HST 6:35 PM HST
Civil Twilight 6:18 AM HST 6:57 PM HST
Nautical Twilight 5:52 AM HST 7:23 PM HST
Astronomical Twilight 5:26 AM HST 7:49 PM HST
Moon 5:43 AM HST (3/10) 5:55 PM HST (3/10)
Length of Visible Light 12h 39m
Length of Day
11h 55m
Waning Crescent, 1% of the Moon is Illuminated
Mar 10
Waning Crescent
Mar 11
New
Mar 19
First Quarter
Mar 26
Full
Apr 2
Last Quarter

Hourly Weather History & Observations

Time (HST) Temp. Dew Point Humidity Pressure Visibility Wind Dir Wind Speed Gust Speed Precip Events Conditions
12:29 AM 64.4 °F 64.4 °F 100% 30.02 in 10.0 mi South 10.4 mph - N/A   Mostly Cloudy
12:37 AM 64.4 °F 64.4 °F 100% 30.02 in 10.0 mi SSE 10.4 mph - N/A   Mostly Cloudy
12:56 AM 64.9 °F 63.9 °F 96% 29.96 in 10.0 mi SE 10.4 mph - N/A   Partly Cloudy
1:47 AM 64.4 °F 62.6 °F 94% 29.99 in 10.0 mi East 6.9 mph - N/A   Mostly Cloudy
1:56 AM 64.4 °F 62.6 °F 94% 29.99 in 10.0 mi East 5.8 mph - N/A   Mostly Cloudy
2:32 AM 64.4 °F 62.6 °F 94% 29.98 in 10.0 mi ESE 9.2 mph - 0.00 in   Mostly Cloudy
2:48 AM 64.4 °F 62.6 °F 94% 29.97 in 10.0 mi SE 8.1 mph - 0.00 in   Mostly Cloudy
2:56 AM 64.9 °F 63.0 °F 93% 29.92 in 10.0 mi SE 8.1 mph - 0.00 in Rain Light Rain
3:15 AM 64.4 °F 62.6 °F 94% 29.97 in 2.5 mi SE 3.5 mph - 0.00 in Rain Light Rain
3:27 AM 64.4 °F 62.6 °F 94% 29.97 in 1.2 mi SE 5.8 mph - 0.06 in Rain Heavy Rain
3:40 AM 64.4 °F 62.6 °F 94% 29.97 in 1.8 mi SE 4.6 mph - 0.11 in Rain Heavy Rain
3:47 AM 64.4 °F 64.4 °F 100% 29.96 in 1.8 mi Variable 4.6 mph - 0.14 in Rain Light Rain
3:56 AM 64.9 °F 63.9 °F 96% 29.91 in 3.0 mi East 6.9 mph - 0.16 in Rain Rain
4:56 AM 64.4 °F 64.4 °F 100% 29.96 in 10.0 mi SSE 11.5 mph - N/A   Overcast
5:20 AM 66.2 °F 66.2 °F 100% 29.96 in 10.0 mi SSE 9.2 mph - 0.01 in   Overcast
5:56 AM 65.8 °F 65.8 °F 100% 29.94 in 10.0 mi SSE 9.2 mph 24.2 mph 0.01 in   Overcast
6:56 AM 66.9 °F 66.9 °F 100% 29.94 in 10.0 mi South 9.2 mph - N/A   Overcast
7:06 AM 66.2 °F 66.2 °F 100% 29.98 in 10.0 mi South 12.7 mph - N/A   Overcast
7:10 AM 66.2 °F 66.2 °F 100% 29.99 in 10.0 mi South 6.9 mph - N/A   Overcast
7:20 AM 68.0 °F 68.0 °F 100% 29.99 in 2.5 mi South 12.7 mph - N/A   Overcast
7:28 AM 68.0 °F 66.2 °F 94% 29.99 in 10.0 mi South 10.4 mph - N/A   Mostly Cloudy
7:40 AM 68.0 °F 68.0 °F 100% 30.00 in 10.0 mi South 13.8 mph - N/A   Mostly Cloudy
7:46 AM 68.0 °F 68.0 °F 100% 30.00 in 10.0 mi South 12.7 mph - N/A   Mostly Cloudy
7:56 AM 68.0 °F 68.0 °F 100% 30.00 in 10.0 mi South 12.7 mph - N/A   Mostly Cloudy
8:20 AM 69.8 °F 69.8 °F 100% 30.01 in 10.0 mi South 12.7 mph - N/A   Mostly Cloudy
8:41 AM 69.8 °F 68.0 °F 94% 30.02 in 10.0 mi SSW 13.8 mph - N/A   Mostly Cloudy
8:56 AM 68.9 °F 68.0 °F 97% 29.98 in 10.0 mi South 16.1 mph - N/A   Mostly Cloudy
9:09 AM 69.8 °F 68.0 °F 94% 30.02 in 10.0 mi SSW 13.8 mph - N/A   Mostly Cloudy
9:16 AM 69.8 °F 68.0 °F 94% 30.02 in 10.0 mi SSW 17.3 mph - N/A   Mostly Cloudy
9:24 AM 69.8 °F 68.0 °F 94% 30.02 in 10.0 mi SSW 16.1 mph - N/A   Mostly Cloudy
9:30 AM 69.8 °F 68.0 °F 94% 30.02 in 10.0 mi South 16.1 mph - N/A   Scattered Clouds
9:45 AM 71.6 °F 68.0 °F 88% 30.02 in 10.0 mi South 13.8 mph - N/A   Mostly Cloudy
9:56 AM 70.9 °F 66.9 °F 87% 29.99 in 10.0 mi South 16.1 mph - N/A   Mostly Cloudy
10:12 AM 71.6 °F 66.2 °F 83% 30.03 in 10.0 mi South 15.0 mph - N/A   Scattered Clouds
10:24 AM 71.6 °F 66.2 °F 83% 30.03 in 10.0 mi South 15.0 mph - N/A   Mostly Cloudy
10:45 AM 71.6 °F 66.2 °F 83% 30.03 in 10.0 mi South 16.1 mph - N/A   Mostly Cloudy
10:56 AM 71.6 °F 66.2 °F 83% 30.03 in 10.0 mi South 15.0 mph - N/A   Mostly Cloudy
11:07 AM 71.6 °F 66.2 °F 83% 30.03 in 10.0 mi SSW 13.8 mph - 0.00 in Rain Light Rain
11:56 AM 72.9 °F 66.9 °F 82% 29.96 in 10.0 mi South 17.3 mph - 0.00 in   Mostly Cloudy
12:05 PM 73.4 °F 66.2 °F 78% 30.01 in 10.0 mi SSW 17.3 mph - N/A   Mostly Cloudy
12:36 PM 71.6 °F 66.2 °F 83% 30.00 in 10.0 mi SSW 16.1 mph - 0.00 in Rain Light Rain
12:56 PM 72.0 °F 66.9 °F 84% 29.94 in 10.0 mi SSW 17.3 mph - 0.00 in Rain Light Rain
1:56 PM 71.6 °F 66.2 °F 83% 29.97 in 10.0 mi SSW 16.1 mph - N/A Rain Light Rain
2:08 PM 71.6 °F 66.2 °F 83% 29.97 in 10.0 mi SSW 17.3 mph - 0.00 in Rain Light Rain
2:25 PM 71.6 °F 66.2 °F 83% 29.96 in 10.0 mi SSW 16.1 mph 21.9 mph 0.00 in Rain Light Rain
2:56 PM 70.0 °F 66.9 °F 90% 29.92 in 10.0 mi SW 8.1 mph - 0.00 in   Overcast
3:23 PM 71.6 °F 66.2 °F 83% 29.96 in 1.2 mi SW 10.4 mph - 0.00 in Rain Light Rain
3:25 PM 71.6 °F 66.2 °F 83% 29.96 in 0.8 mi SW 8.1 mph - 0.00 in Rain Light Rain
3:32 PM 69.8 °F 66.2 °F 88% 29.96 in 1.2 mi WSW 12.7 mph - 0.00 in Rain Light Rain
3:36 PM 69.8 °F 64.4 °F 83% 29.97 in 0.5 mi West 10.4 mph - 0.00 in Fog , Rain Light Rain
3:43 PM 66.2 °F 64.4 °F 94% 29.97 in 0.2 mi West 9.2 mph - 0.01 in Fog , Rain Light Rain
3:56 PM 65.8 °F 63.9 °F 93% 29.93 in 0.2 mi WSW 15.0 mph - 0.02 in Fog , Rain Light Rain
4:26 PM 66.2 °F 64.4 °F 94% 29.97 in 10.0 mi WSW 6.9 mph - 0.01 in Rain Light Rain
4:47 PM 66.2 °F 66.2 °F 100% 29.98 in 1.5 mi West 9.2 mph - 0.01 in Rain Light Rain
4:49 PM 66.2 °F 66.2 °F 100% 29.98 in 1.0 mi West 8.1 mph - 0.01 in Rain Rain
4:56 PM 66.2 °F 64.4 °F 94% 29.98 in 1.0 mi WSW 10.4 mph - N/A Rain Heavy Rain
4:58 PM 66.2 °F 64.4 °F 94% 29.98 in 1.5 mi WSW 10.4 mph - 0.00 in Rain Heavy Rain
5:00 PM 64.4 °F 64.4 °F 100% 29.98 in 2.0 mi SW 11.5 mph - 0.00 in Rain Rain
5:09 PM 64.4 °F 64.4 °F 100% 29.98 in 1.5 mi SSW 11.5 mph - 0.02 in Rain Rain
5:20 PM 64.4 °F 64.4 °F 100% 29.99 in 1.2 mi SW 8.1 mph - 0.02 in Rain Rain
5:22 PM 64.4 °F 62.6 °F 94% 29.99 in 1.0 mi WSW 6.9 mph - 0.04 in Rain Rain
5:24 PM 64.4 °F 62.6 °F 94% 29.99 in 0.8 mi WSW 5.8 mph - 0.05 in Rain Heavy Rain
5:33 PM 62.6 °F 62.6 °F 100% 29.99 in 1.0 mi Calm Calm - 0.08 in Rain Heavy Rain
5:36 PM 62.6 °F 62.6 °F 100% 29.99 in 1.5 mi Calm Calm - 0.08 in Rain Rain
5:40 PM 62.6 °F 62.6 °F 100% 29.99 in 2.0 mi Calm Calm - 0.08 in Rain Light Rain
5:44 PM 64.4 °F 62.6 °F 94% 29.99 in 6.0 mi Variable 3.5 mph - 0.08 in Rain Rain
5:56 PM 63.9 °F 63.0 °F 97% 29.96 in 2.5 mi WNW 5.8 mph - 0.10 in Rain Rain
6:06 PM 64.4 °F 64.4 °F 100% 30.00 in 4.0 mi WNW 6.9 mph - 0.00 in Rain Light Rain
6:09 PM 64.4 °F 64.4 °F 100% 30.00 in 2.5 mi NW 6.9 mph - 0.00 in Rain Light Rain
6:17 PM 64.4 °F 64.4 °F 100% 30.00 in 1.0 mi WNW 6.9 mph - 0.00 in Rain Light Rain
6:19 PM 64.4 °F 64.4 °F 100% 30.00 in 0.5 mi WNW 6.9 mph - 0.00 in Fog , Rain Light Rain
6:29 PM 64.4 °F 64.4 °F 100% 30.00 in 0.2 mi WNW 9.2 mph - 0.00 in Fog , Rain Light Rain
6:42 PM 64.4 °F 64.4 °F 100% 30.00 in 0.8 mi NW 8.1 mph - 0.01 in Rain Rain
6:56 PM 63.9 °F 63.9 °F 100% 29.97 in 0.5 mi NW 8.1 mph - 0.01 in Fog , Rain Light Rain
7:08 PM 64.4 °F 64.4 °F 100% 30.02 in 1.0 mi WNW 5.8 mph - 0.00 in Rain Light Rain
7:13 PM 64.4 °F 64.4 °F 100% 30.02 in 0.5 mi NW 6.9 mph - 0.00 in Fog , Rain Light Rain
7:21 PM 64.4 °F 64.4 °F 100% 30.03 in 0.2 mi WNW 11.5 mph - 0.01 in Fog , Rain Rain
7:33 PM 64.4 °F 64.4 °F 100% 30.03 in 0.8 mi NW 8.1 mph - 0.03 in Rain Heavy Rain
7:36 PM 64.4 °F 64.4 °F 100% 30.03 in 1.2 mi NNW 8.1 mph - 0.03 in Rain Rain
7:48 PM 64.4 °F 64.4 °F 100% 30.04 in 2.0 mi NNW 8.1 mph - 0.04 in Rain Rain
7:56 PM 64.4 °F 64.4 °F 100% 30.04 in 10.0 mi NW 8.1 mph - N/A Rain Light Rain
8:08 PM 64.4 °F 64.4 °F 100% 30.05 in 10.0 mi NW 4.6 mph - 0.00 in Rain Light Rain
8:56 PM 63.9 °F 63.9 °F 100% 30.02 in 10.0 mi NW 6.9 mph - 0.00 in   Mostly Cloudy
9:56 PM 63.9 °F 63.9 °F 100% 30.04 in 10.0 mi Calm Calm - 0.00 in   Mostly Cloudy
10:24 PM 64.4 °F 64.4 °F 100% 30.08 in 10.0 mi NW 5.8 mph - N/A   Mostly Cloudy
10:31 PM 64.4 °F 64.4 °F 100% 30.08 in 10.0 mi NW 4.6 mph - N/A   Mostly Cloudy
10:56 PM 64.9 °F 64.9 °F 100% 30.04 in 10.0 mi WNW 6.9 mph - N/A   Overcast
11:32 PM 64.4 °F 64.4 °F 100% 30.08 in 10.0 mi WNW 6.9 mph - N/A   Mostly Cloudy
11:41 PM 64.4 °F 64.4 °F 100% 30.08 in 1.8 mi WNW 6.9 mph - N/A   Mostly Cloudy
11:43 PM 64.4 °F 64.4 °F 100% 30.08 in 0.8 mi WNW 6.9 mph - N/A   Mostly Cloudy
11:45 PM 64.4 °F 64.4 °F 100% 30.08 in 0.2 mi WNW 6.9 mph - N/A Fog Fog
11:56 PM 64.9 °F 64.9 °F 100% 30.03 in 0.2 mi NNW 5.8 mph - N/A Fog Fog